DAL595 KSLC-KSJC

Flight info

Callsign DAL595
Flight time 1h 27m
Altitude 36000
Route DEZRT2 MVA GYLET STUBL RAZRR5
Aircraft B738/M-SDE2E3FGHIRWXY/LB1

Departure

Time 2026-05-08 03:18
Airport Salt Lake City International Airport (KSLC)

Arrival

Time 2026-05-08 04:46
Airport Norman Y. Mineta San Jose International Airport (KSJC)
Time Latitude Longitude Altitude Speed Heading
2026-05-08 02:56 40.78478 -111.99048 4228 ft 0 kts 355°
2026-05-08 03:07 40.78477 -111.99048 4228 ft 1 kts 356°
2026-05-08 03:08 40.78467 -111.99047 4228 ft 0 kts 355°
2026-05-08 03:08 40.78453 -111.99043 4228 ft 2 kts 335°
2026-05-08 03:08 40.78440 -111.99033 4228 ft 2 kts 317°
2026-05-08 03:08 40.78431 -111.99017 4229 ft 2 kts 297°
2026-05-08 03:09 40.78426 -111.98999 4229 ft 2 kts 277°
2026-05-08 03:09 40.78426 -111.98988 4229 ft 1 kts 266°
2026-05-08 03:09 40.78426 -111.98980 4229 ft 0 kts 265°
2026-05-08 03:12 40.78426 -111.98981 4228 ft 0 kts 265°
2026-05-08 03:13 40.78423 -111.99027 4228 ft 10 kts 265°
2026-05-08 03:13 40.78417 -111.99120 4228 ft 10 kts 265°
2026-05-08 03:13 40.78411 -111.99216 4228 ft 10 kts 266°
2026-05-08 03:13 40.78411 -111.99312 4228 ft 10 kts 275°
2026-05-08 03:14 40.78417 -111.99404 4228 ft 10 kts 248°
2026-05-08 03:14 40.78352 -111.99430 4228 ft 12 kts 175°
2026-05-08 03:14 40.78268 -111.99419 4228 ft 12 kts 176°
2026-05-08 03:14 40.78177 -111.99411 4228 ft 13 kts 176°
2026-05-08 03:15 40.78081 -111.99412 4228 ft 14 kts 192°
2026-05-08 03:15 40.77976 -111.99438 4228 ft 15 kts 180°
2026-05-08 03:15 40.77867 -111.99429 4229 ft 16 kts 174°
2026-05-08 03:15 40.77732 -111.99412 4229 ft 21 kts 175°
2026-05-08 03:16 40.77600 -111.99397 4229 ft 14 kts 175°
2026-05-08 03:16 40.77542 -111.99399 4229 ft 6 kts 213°
2026-05-08 03:16 40.77523 -111.99454 4229 ft 8 kts 261°
2026-05-08 03:16 40.77515 -111.99529 4229 ft 6 kts 266°
2026-05-08 03:17 40.77548 -111.99555 4229 ft 5 kts 353°
2026-05-08 03:17 40.77557 -111.99556 4229 ft 0 kts 355°
2026-05-08 03:17 40.77582 -111.99559 4229 ft 16 kts 355°
2026-05-08 03:18 40.77950 -111.99599 4228 ft 88 kts 355°
2026-05-08 03:18 40.78780 -111.99697 4227 ft 148 kts 355°
2026-05-08 03:18 40.79951 -111.99838 4347 ft 184 kts 355°
2026-05-08 03:18 40.81190 -111.99976 5122 ft 179 kts 350°
2026-05-08 03:19 40.82382 -112.00652 5556 ft 196 kts 318°
2026-05-08 03:19 40.83152 -112.02158 6042 ft 209 kts 293°
2026-05-08 03:19 40.83691 -112.04021 6485 ft 224 kts 291°
2026-05-08 03:19 40.84237 -112.05999 6959 ft 237 kts 291°
2026-05-08 03:20 40.84807 -112.08073 7473 ft 248 kts 291°
2026-05-08 03:20 40.85261 -112.10329 7938 ft 262 kts 279°
2026-05-08 03:20 40.85374 -112.12762 8459 ft 274 kts 273°
2026-05-08 03:20 40.85417 -112.15299 9178 ft 276 kts 275°
2026-05-08 03:21 40.85509 -112.17793 9976 ft 275 kts 276°
2026-05-08 03:21 40.85652 -112.20303 10628 ft 280 kts 277°
2026-05-08 03:21 40.85825 -112.22892 11111 ft 291 kts 277°
2026-05-08 03:21 40.86014 -112.25648 11488 ft 307 kts 277°
2026-05-08 03:22 40.86206 -112.28481 12012 ft 317 kts 277°
2026-05-08 03:22 40.86396 -112.31364 12781 ft 318 kts 276°
2026-05-08 03:22 40.86585 -112.34274 13537 ft 321 kts 276°
2026-05-08 03:22 40.86773 -112.37211 14256 ft 325 kts 277°
2026-05-08 03:23 40.86965 -112.40198 14914 ft 331 kts 277°
2026-05-08 03:23 40.87106 -112.43234 15585 ft 337 kts 274°
2026-05-08 03:23 40.87069 -112.46319 16246 ft 343 kts 270°
2026-05-08 03:23 40.86894 -112.49493 16848 ft 350 kts 269°
2026-05-08 03:24 40.86661 -112.52697 17496 ft 355 kts 269°
2026-05-08 03:24 40.86414 -112.55927 18140 ft 359 kts 269°
2026-05-08 03:24 40.86169 -112.59190 18774 ft 363 kts 269°
2026-05-08 03:24 40.85900 -112.62552 19405 ft 367 kts 268°
2026-05-08 03:25 40.85621 -112.65905 19993 ft 372 kts 268°
2026-05-08 03:25 40.85338 -112.69286 20608 ft 376 kts 268°
2026-05-08 03:25 40.85048 -112.72770 21164 ft 381 kts 268°
2026-05-08 03:25 40.84763 -112.76215 21718 ft 385 kts 268°
2026-05-08 03:26 40.84470 -112.79754 22255 ft 390 kts 268°
2026-05-08 03:26 40.84195 -112.83294 22794 ft 393 kts 270°
2026-05-08 03:26 40.84058 -112.86900 23289 ft 396 kts 272°
2026-05-08 03:26 40.84042 -112.90546 23903 ft 397 kts 275°
2026-05-08 03:27 40.84077 -112.94159 24509 ft 398 kts 275°
2026-05-08 03:27 40.84125 -112.97790 25012 ft 401 kts 275°
2026-05-08 03:27 40.84172 -113.01495 25542 ft 404 kts 275°
2026-05-08 03:27 40.84207 -113.05159 26091 ft 405 kts 275°
2026-05-08 03:28 40.84233 -113.08913 26596 ft 407 kts 275°
2026-05-08 03:28 40.84251 -113.12610 27109 ft 409 kts 275°
2026-05-08 03:28 40.84264 -113.16385 27531 ft 412 kts 275°
2026-05-08 03:28 40.84272 -113.20146 28041 ft 413 kts 275°
2026-05-08 03:29 40.84277 -113.23933 28435 ft 417 kts 275°
2026-05-08 03:29 40.84280 -113.27753 28982 ft 416 kts 275°
2026-05-08 03:29 40.84280 -113.31541 29368 ft 419 kts 275°
2026-05-08 03:29 40.84281 -113.35397 29772 ft 422 kts 275°
2026-05-08 03:30 40.84275 -113.43098 30728 ft 422 kts 275°
2026-05-08 03:30 40.84262 -113.50776 31863 ft 416 kts 276°
2026-05-08 03:31 40.84245 -113.58364 32802 ft 414 kts 276°
2026-05-08 03:31 40.84227 -113.66107 33705 ft 412 kts 275°
2026-05-08 03:32 40.84216 -113.69924 34253 ft 410 kts 276°
2026-05-08 03:32 40.84203 -113.73756 34734 ft 408 kts 276°
2026-05-08 03:32 40.84189 -113.77544 35191 ft 407 kts 276°
2026-05-08 03:32 40.84174 -113.81284 35697 ft 405 kts 276°
2026-05-08 03:33 40.84157 -113.84982 36090 ft 404 kts 276°
2026-05-08 03:33 40.84120 -113.92449 36093 ft 405 kts 275°
2026-05-08 03:34 40.84073 -113.99872 36094 ft 406 kts 275°
2026-05-08 03:34 40.84022 -114.07323 36101 ft 404 kts 275°
2026-05-08 03:35 40.83965 -114.14749 36128 ft 406 kts 275°
2026-05-08 03:35 40.83903 -114.22206 36168 ft 407 kts 275°
2026-05-08 03:36 40.83837 -114.29691 36183 ft 406 kts 275°
2026-05-08 03:36 40.83763 -114.37549 36181 ft 406 kts 275°
2026-05-08 03:37 40.83687 -114.45014 36187 ft 406 kts 275°
2026-05-08 03:37 40.83609 -114.52408 36191 ft 407 kts 275°
2026-05-08 03:38 40.83524 -114.59913 36184 ft 407 kts 275°
2026-05-08 03:38 40.83231 -114.67358 36186 ft 413 kts 267°
2026-05-08 03:38 40.82548 -114.71076 36191 ft 422 kts 256°
2026-05-08 03:39 40.81318 -114.74644 36194 ft 430 kts 246°
2026-05-08 03:39 40.77678 -114.80985 36195 ft 441 kts 231°
2026-05-08 03:40 40.73047 -114.86356 36196 ft 446 kts 224°
2026-05-08 03:40 40.68142 -114.91401 36211 ft 448 kts 223°
2026-05-08 03:41 40.63234 -114.96415 36224 ft 448 kts 223°
2026-05-08 03:41 40.58256 -115.01573 36228 ft 459 kts 223°
2026-05-08 03:42 40.53227 -115.06829 36232 ft 461 kts 223°
2026-05-08 03:42 40.48213 -115.12076 36232 ft 461 kts 224°
2026-05-08 03:43 40.43160 -115.17364 36229 ft 462 kts 223°
2026-05-08 03:43 40.38157 -115.22594 36239 ft 461 kts 223°
2026-05-08 03:44 40.33139 -115.27831 36240 ft 461 kts 223°
2026-05-08 03:44 40.28111 -115.33067 36250 ft 460 kts 223°
2026-05-08 03:45 40.23111 -115.38264 36253 ft 460 kts 223°
2026-05-08 03:45 40.18098 -115.43469 36261 ft 460 kts 223°
2026-05-08 03:46 40.13053 -115.48695 36261 ft 460 kts 223°
2026-05-08 03:46 40.08059 -115.53857 36264 ft 458 kts 223°
2026-05-08 03:47 40.03020 -115.59057 36260 ft 458 kts 223°
2026-05-08 03:47 39.97992 -115.64237 36252 ft 459 kts 223°
2026-05-08 03:48 39.92953 -115.69417 36251 ft 460 kts 222°
2026-05-08 03:48 39.87933 -115.74565 36254 ft 458 kts 222°
2026-05-08 03:49 39.82944 -115.79672 36254 ft 459 kts 222°
2026-05-08 03:49 39.77927 -115.84798 36253 ft 458 kts 222°
2026-05-08 03:50 39.72926 -115.89899 36252 ft 457 kts 222°
2026-05-08 03:50 39.67900 -115.95015 36261 ft 458 kts 222°
2026-05-08 03:51 39.62894 -116.00101 36262 ft 459 kts 221°
2026-05-08 03:51 39.57835 -116.05233 36271 ft 458 kts 221°
2026-05-08 03:52 39.52819 -116.10309 36272 ft 458 kts 221°
2026-05-08 03:52 39.47795 -116.15385 36276 ft 457 kts 221°
2026-05-08 03:53 39.42764 -116.20458 36279 ft 457 kts 221°
2026-05-08 03:53 39.37749 -116.25506 36285 ft 457 kts 221°
2026-05-08 03:54 39.32751 -116.30527 36295 ft 457 kts 221°
2026-05-08 03:54 39.27749 -116.35663 36310 ft 454 kts 225°
2026-05-08 03:55 39.23677 -116.41721 36330 ft 447 kts 240°
2026-05-08 03:55 39.20555 -116.48666 36341 ft 445 kts 246°
2026-05-08 03:56 39.17736 -116.55742 36340 ft 445 kts 247°
2026-05-08 03:56 39.14933 -116.62849 36336 ft 445 kts 246°
2026-05-08 03:57 39.12100 -116.69933 36329 ft 446 kts 245°
2026-05-08 03:57 39.09216 -116.77058 36319 ft 446 kts 245°
2026-05-08 03:58 39.06356 -116.84064 36310 ft 446 kts 245°
2026-05-08 03:58 39.03473 -116.91095 36299 ft 445 kts 245°
2026-05-08 03:59 39.00576 -116.98135 36285 ft 445 kts 245°
2026-05-08 03:59 38.97692 -117.05128 36291 ft 445 kts 245°
2026-05-08 04:00 38.94770 -117.12195 36297 ft 445 kts 244°
2026-05-08 04:00 38.91875 -117.19183 36316 ft 445 kts 244°
2026-05-08 04:01 38.88961 -117.26198 36327 ft 445 kts 244°
2026-05-08 04:01 38.86047 -117.33199 36328 ft 446 kts 244°
2026-05-08 04:02 38.83129 -117.40193 36324 ft 445 kts 244°
2026-05-08 04:02 38.80213 -117.47167 36323 ft 445 kts 244°
2026-05-08 04:03 38.77285 -117.54152 36319 ft 444 kts 244°
2026-05-08 04:03 38.72900 -117.64588 36299 ft 444 kts 244°
2026-05-08 04:04 38.69952 -117.71584 36282 ft 444 kts 244°
2026-05-08 04:04 38.67027 -117.78509 36271 ft 445 kts 244°
2026-05-08 04:05 38.64098 -117.85427 36267 ft 444 kts 243°
2026-05-08 04:05 38.61158 -117.92355 36264 ft 444 kts 243°
2026-05-08 04:06 38.58156 -117.99245 36269 ft 445 kts 240°
2026-05-08 04:06 38.54218 -118.05312 36275 ft 449 kts 223°
2026-05-08 04:07 38.49204 -118.10150 36268 ft 451 kts 217°
2026-05-08 04:07 38.44019 -118.14629 36267 ft 449 kts 216°
2026-05-08 04:08 38.38837 -118.19069 36262 ft 450 kts 216°
2026-05-08 04:08 38.33648 -118.23570 36267 ft 450 kts 216°
2026-05-08 04:09 38.28512 -118.28062 36282 ft 449 kts 216°
2026-05-08 04:09 38.23383 -118.32564 36295 ft 450 kts 216°
2026-05-08 04:10 38.18210 -118.37105 36312 ft 449 kts 216°
2026-05-08 04:10 38.13056 -118.41625 36327 ft 449 kts 216°
2026-05-08 04:11 38.07937 -118.46105 36336 ft 449 kts 216°
2026-05-08 04:11 38.02802 -118.50593 36340 ft 449 kts 216°
2026-05-08 04:12 37.97667 -118.55074 36356 ft 448 kts 216°
2026-05-08 04:12 37.92532 -118.59546 36363 ft 448 kts 216°
2026-05-08 04:13 37.87335 -118.64063 36351 ft 449 kts 216°
2026-05-08 04:13 37.82202 -118.68518 36352 ft 449 kts 216°
2026-05-08 04:14 37.77010 -118.73017 36349 ft 449 kts 216°
2026-05-08 04:14 37.71856 -118.77474 36346 ft 448 kts 216°
2026-05-08 04:15 37.66689 -118.81936 36353 ft 448 kts 216°
2026-05-08 04:15 37.63840 -118.84392 36352 ft 448 kts 216°
2026-05-08 04:16 37.58695 -118.88823 36379 ft 448 kts 215°
2026-05-08 04:16 37.53538 -118.93256 36391 ft 449 kts 215°
2026-05-08 04:17 37.48529 -118.98028 36439 ft 447 kts 225°
2026-05-08 04:17 37.46511 -119.00947 36439 ft 445 kts 236°
2026-05-08 04:17 37.44926 -119.04271 36442 ft 444 kts 245°
2026-05-08 04:18 37.42700 -119.11473 36418 ft 442 kts 253°
2026-05-08 04:18 37.40914 -119.18917 36378 ft 442 kts 255°
2026-05-08 04:19 37.39224 -119.26311 36338 ft 438 kts 255°
2026-05-08 04:19 37.38385 -119.29946 36127 ft 429 kts 255°
2026-05-08 04:19 37.37558 -119.33496 35684 ft 423 kts 255°
2026-05-08 04:20 37.36739 -119.36984 35110 ft 420 kts 255°
2026-05-08 04:20 37.35916 -119.40463 34765 ft 412 kts 255°
2026-05-08 04:20 37.35101 -119.43885 34315 ft 407 kts 255°
2026-05-08 04:20 37.34290 -119.47279 33853 ft 406 kts 254°
2026-05-08 04:21 37.33466 -119.50715 33406 ft 411 kts 254°
2026-05-08 04:21 37.32649 -119.54111 32923 ft 412 kts 254°
2026-05-08 04:21 37.31817 -119.57555 32427 ft 408 kts 254°
2026-05-08 04:21 37.31002 -119.60923 31940 ft 405 kts 254°
2026-05-08 04:22 37.30190 -119.64271 31470 ft 401 kts 254°
2026-05-08 04:22 37.29378 -119.67617 30985 ft 398 kts 253°
2026-05-08 04:22 37.28574 -119.70929 30507 ft 395 kts 253°
2026-05-08 04:22 37.27777 -119.74205 30028 ft 392 kts 253°
2026-05-08 04:23 37.26982 -119.77465 29549 ft 389 kts 253°
2026-05-08 04:23 37.26195 -119.80690 29074 ft 386 kts 253°
2026-05-08 04:23 37.25416 -119.83876 28600 ft 383 kts 253°
2026-05-08 04:23 37.24643 -119.87035 28137 ft 380 kts 253°
2026-05-08 04:24 37.23871 -119.90182 27672 ft 377 kts 253°
2026-05-08 04:24 37.23132 -119.93301 27218 ft 373 kts 256°
2026-05-08 04:24 37.22570 -119.96465 27055 ft 366 kts 261°
2026-05-08 04:24 37.22168 -119.99593 27045 ft 370 kts 262°
2026-05-08 04:25 37.21822 -120.02827 26995 ft 378 kts 263°
2026-05-08 04:25 37.21493 -120.06106 26599 ft 378 kts 263°
2026-05-08 04:25 37.21173 -120.09329 26135 ft 375 kts 263°
2026-05-08 04:25 37.20846 -120.12579 25679 ft 372 kts 263°
2026-05-08 04:26 37.20520 -120.15756 25231 ft 368 kts 263°
2026-05-08 04:26 37.20189 -120.18937 24769 ft 365 kts 263°
2026-05-08 04:26 37.19861 -120.22046 24321 ft 362 kts 263°
2026-05-08 04:26 37.19531 -120.25140 23872 ft 359 kts 263°
2026-05-08 04:27 37.19201 -120.28219 23431 ft 356 kts 263°
2026-05-08 04:27 37.18870 -120.31290 22987 ft 353 kts 263°
2026-05-08 04:27 37.18545 -120.34292 22548 ft 350 kts 263°
2026-05-08 04:27 37.18217 -120.37322 22113 ft 347 kts 263°
2026-05-08 04:28 37.17895 -120.40267 22018 ft 340 kts 263°
2026-05-08 04:28 37.17572 -120.43206 22021 ft 346 kts 263°
2026-05-08 04:28 37.17238 -120.46220 22022 ft 348 kts 262°
2026-05-08 04:28 37.16909 -120.49183 21797 ft 346 kts 263°
2026-05-08 04:29 37.16576 -120.52171 21389 ft 343 kts 262°
2026-05-08 04:29 37.16251 -120.55084 20973 ft 341 kts 262°
2026-05-08 04:29 37.15922 -120.58021 20532 ft 339 kts 262°
2026-05-08 04:29 37.15598 -120.60918 20122 ft 337 kts 263°
2026-05-08 04:30 37.15275 -120.63797 19691 ft 335 kts 263°
2026-05-08 04:30 37.14948 -120.66709 19256 ft 333 kts 262°
2026-05-08 04:30 37.14625 -120.69569 18841 ft 332 kts 262°
2026-05-08 04:30 37.14306 -120.72401 18403 ft 330 kts 262°
2026-05-08 04:31 37.13986 -120.75230 17976 ft 329 kts 263°
2026-05-08 04:31 37.13668 -120.78062 17541 ft 327 kts 263°
2026-05-08 04:31 37.13361 -120.80851 17122 ft 326 kts 263°
2026-05-08 04:31 37.13052 -120.83663 16698 ft 324 kts 263°
2026-05-08 04:32 37.12747 -120.86430 16288 ft 322 kts 263°
2026-05-08 04:32 37.12443 -120.89175 15877 ft 320 kts 263°
2026-05-08 04:32 37.12135 -120.91944 15446 ft 318 kts 263°
2026-05-08 04:32 37.11835 -120.94638 15043 ft 316 kts 262°
2026-05-08 04:33 37.11532 -120.97343 14648 ft 313 kts 262°
2026-05-08 04:33 37.11232 -121.00024 14230 ft 311 kts 262°
2026-05-08 04:33 37.10932 -121.02685 13828 ft 309 kts 262°
2026-05-08 04:33 37.10636 -121.05325 13442 ft 306 kts 262°
2026-05-08 04:34 37.10340 -121.07945 13048 ft 304 kts 262°
2026-05-08 04:34 37.10044 -121.10564 12642 ft 301 kts 262°
2026-05-08 04:34 37.09859 -121.13138 12254 ft 299 kts 270°
2026-05-08 04:34 37.10007 -121.15727 11876 ft 296 kts 278°
2026-05-08 04:35 37.10322 -121.18240 11506 ft 293 kts 280°
2026-05-08 04:35 37.10677 -121.20766 11114 ft 292 kts 280°
2026-05-08 04:35 37.11005 -121.23238 10729 ft 289 kts 279°
2026-05-08 04:35 37.11313 -121.25725 10368 ft 287 kts 279°
2026-05-08 04:36 37.11601 -121.28181 9996 ft 285 kts 279°
2026-05-08 04:36 37.11880 -121.30612 9618 ft 284 kts 279°
2026-05-08 04:36 37.12158 -121.33062 9250 ft 282 kts 279°
2026-05-08 04:36 37.12432 -121.35471 8895 ft 281 kts 279°
2026-05-08 04:37 37.12709 -121.37908 8513 ft 280 kts 279°
2026-05-08 04:37 37.12979 -121.40289 8147 ft 278 kts 278°
2026-05-08 04:37 37.13249 -121.42689 7772 ft 277 kts 278°
2026-05-08 04:37 37.13513 -121.45050 7411 ft 275 kts 278°
2026-05-08 04:38 37.13777 -121.47424 7056 ft 273 kts 278°
2026-05-08 04:38 37.14037 -121.49751 6703 ft 271 kts 278°
2026-05-08 04:38 37.14298 -121.52092 6342 ft 269 kts 278°
2026-05-08 04:38 37.14554 -121.54394 5996 ft 267 kts 278°
2026-05-08 04:39 37.14807 -121.56681 5651 ft 266 kts 278°
2026-05-08 04:39 37.15059 -121.58952 5299 ft 265 kts 279°
2026-05-08 04:39 37.15309 -121.61215 5008 ft 262 kts 279°
2026-05-08 04:39 37.15558 -121.63477 4959 ft 259 kts 279°
2026-05-08 04:40 37.15801 -121.65689 4822 ft 252 kts 278°
2026-05-08 04:40 37.16036 -121.67823 4639 ft 245 kts 278°
2026-05-08 04:40 37.16290 -121.69888 4466 ft 237 kts 284°
2026-05-08 04:40 37.16922 -121.71751 4243 ft 232 kts 307°
2026-05-08 04:41 37.18004 -121.73186 4112 ft 223 kts 318°
2026-05-08 04:41 37.19181 -121.74438 3997 ft 214 kts 320°
2026-05-08 04:41 37.20291 -121.75611 3885 ft 209 kts 319°
2026-05-08 04:41 37.21392 -121.76805 3779 ft 209 kts 319°
2026-05-08 04:42 37.22506 -121.78016 3545 ft 212 kts 319°
2026-05-08 04:42 37.23623 -121.79229 3230 ft 212 kts 319°
2026-05-08 04:42 37.24728 -121.80429 2938 ft 209 kts 319°
2026-05-08 04:42 37.25816 -121.81612 2642 ft 205 kts 319°
2026-05-08 04:43 37.26879 -121.82767 2363 ft 201 kts 319°
2026-05-08 04:43 37.27922 -121.83901 2091 ft 196 kts 319°
2026-05-08 04:43 37.28952 -121.85021 1823 ft 191 kts 319°
2026-05-08 04:43 37.29913 -121.86068 1591 ft 174 kts 319°
2026-05-08 04:44 37.30785 -121.87018 1367 ft 156 kts 319°
2026-05-08 04:44 37.31579 -121.87882 1116 ft 145 kts 320°
2026-05-08 04:44 37.32322 -121.88691 945 ft 140 kts 320°
2026-05-08 04:44 37.33051 -121.89485 755 ft 141 kts 320°
2026-05-08 04:45 37.33817 -121.90312 600 ft 143 kts 320°
2026-05-08 04:45 37.34557 -121.91118 391 ft 139 kts 320°
2026-05-08 04:45 37.35285 -121.91913 180 ft 139 kts 319°
2026-05-08 04:45 37.36000 -121.92695 62 ft 132 kts 320°
2026-05-08 04:46 37.36562 -121.93308 49 ft 73 kts 318°
2026-05-08 04:46 37.36797 -121.93568 47 ft 23 kts 323°
2026-05-08 04:46 37.36869 -121.93589 46 ft 7 kts
2026-05-08 04:46 37.36918 -121.93565 46 ft 7 kts 36°
2026-05-08 04:47 37.36955 -121.93514 46 ft 7 kts 55°
2026-05-08 04:47 37.36991 -121.93464 45 ft 7 kts 47°
2026-05-08 04:47 37.37026 -121.93417 45 ft 5 kts 50°
2026-05-08 04:47 37.37050 -121.93379 45 ft 5 kts 50°
2026-05-08 04:48 37.37075 -121.93343 45 ft 5 kts 50°
2026-05-08 04:48 37.37083 -121.93306 45 ft 4 kts 127°
2026-05-08 04:48 37.37061 -121.93280 45 ft 3 kts 139°
2026-05-08 04:48 37.37043 -121.93260 45 ft 3 kts 139°
2026-05-08 04:49 37.37030 -121.93246 46 ft 1 kts 129°
2026-05-08 04:49 37.37031 -121.93237 46 ft 1 kts 69°
2026-05-08 04:49 37.37045 -121.93211 44 ft 6 kts 52°
2026-05-08 04:49 37.37059 -121.93188 42 ft 0 kts 52°
2026-05-08 04:50 37.37060 -121.93187 42 ft 0 kts 52°